Starlink 30363

operational
NORAD ID: 57744 Int'l Des: 2023-131 Owner: SPXS Country: US Constellation: starlink
LEOCIRCULAR

关于 Starlink 30363

正在加载描述...

实时位置

正在加载3D地球...

即将过境

高度历史

Altitude vs Time

uPlot chart will show altitude changes over time

两行轨道根数

1 57744U 23131N 25258.07011336 -.00000191 00000-0 93370-6 0 9990
2 57744 43.0044 33.5192 0001390 271.9121 88.1562 15.02534535113652
Epoch: Sep 15, 2025 • Age: 16 hours

当前状态

高度 563.6 km
速度 7.58 km/s
星下点 -22.18°S, 106.91°E
发射日期 Sep 1, 2023
运行时间 2 years
类型 internet

技术详情

分类 Payload
质量 730.00 kg
干质量 700.00 kg
总质量 730.00 kg
长度 0.30 m
直径 4.10 m
跨度 29.00 m
形状 Box + pan
制造商 SPXS
平台类型 Starlink V2M
阶段状态 In Orbit
所有者/国家 SPXS/US

大型星座

Loading constellations...